Location: Doux
(49.5045°N, 4.4321°E)
Time: 02:07:50
(UTC+00:00)

Cosmos 2082 Rocket - Pass Details

Date: 23 May 2024
Orbit: 832 x 853 km, 71.0° (Epoch: 21 June)

Event Time Altitude Azimuth Distance (km) Brightness Sun altitude
Exits shadow 01:48:41 14° 247° (WSW) 2,219 3.9 -14.2°
Maximum altitude 01:53:09 37° 310° (NW) 1,299 3.2 -13.8°
Drops below altitude 10° 01:58:27 10° 18° (NNE) 2,492 6.0 -13.3°
Sets 02:01:07 0° 27° (NNE) 3,430 7.3 -13.1°
